Tracking 27188 objects as of 2-Apr-2023
HD Live streaming from Space Station
objects crossing your sky now

COSMOS 1862

Track COSMOS 1862 now!
10-day predictions
COSMOS 1862 is classified as:


NORAD ID: 18152
Int'l Code: 1987-055A
Perigee: 532.8 km
Apogee: 553.1 km
Inclination: 82.5 °
Period: 95.4 minutes
Semi major axis: 6913 km
RCS: 8.6433 m2 (large)
Launch date: July 1, 1987
Source: Commonwealth of Independent States (former USSR) (CIS)
Launch site: PLESETSK MISSILE AND SPACE COMPLEX (PKMTR)
Your satellite tracking list
Your tracking list is empty




NASA's NSSDC Master Catalog

Two Line Element Set (TLE):
1 18152U 87055A   23091.32352095  .00009912  00000-0  60474-3 0  9991
2 18152  82.4930  34.9597 0014633 144.8990 215.3206 15.10124001926847
Source of the keplerian elements: AFSPC